Year,Month,Day,Hour,Minute,Value (Times are PST for windgust in km/hr)
2017,05,23,00,00,9.60
2017,05,23,00,01,14.50
2017,05,23,00,02,3.20
2017,05,23,00,03,4.80
2017,05,23,00,04,8.10
2017,05,23,00,05,9.60
2017,05,23,00,06,8.10
2017,05,23,00,07,14.50
2017,05,23,00,08,6.40
2017,05,23,00,09,8.10
2017,05,23,00,10,12.90
2017,05,23,00,11,9.60
2017,05,23,00,12,8.10
2017,05,23,00,13,4.80
2017,05,23,00,15,4.80
2017,05,23,00,16,6.40
2017,05,23,00,18,4.80
2017,05,23,00,19,6.40
2017,05,23,00,20,8.10
2017,05,23,00,21,6.40
2017,05,23,00,22,9.60
2017,05,23,00,23,3.20
2017,05,23,00,24,6.40
2017,05,23,00,25,6.40
2017,05,23,00,26,4.80
2017,05,23,00,27,4.80
2017,05,23,00,28,3.20
2017,05,23,00,29,8.10
2017,05,23,00,30,9.60
2017,05,23,00,31,1.60
2017,05,23,00,32,6.40
2017,05,23,00,33,6.40
2017,05,23,00,34,9.60
2017,05,23,00,35,1.60
2017,05,23,00,36,6.40
2017,05,23,00,37,4.80
2017,05,23,00,38,8.10
2017,05,23,00,39,4.80
2017,05,23,00,40,3.20
2017,05,23,00,41,6.40
2017,05,23,00,42,3.20
2017,05,23,00,43,6.40
2017,05,23,00,44,8.10
2017,05,23,00,45,4.80
2017,05,23,00,46,3.20
2017,05,23,00,47,8.10
2017,05,23,00,48,3.20
2017,05,23,00,49,3.20
2017,05,23,00,50,4.80
2017,05,23,00,52,1.60
2017,05,23,00,54,1.60
2017,05,23,00,55,4.80
2017,05,23,00,56,11.30
2017,05,23,00,57,9.60
2017,05,23,00,58,8.10
2017,05,23,00,59,3.20
2017,05,23,01,00,3.20
2017,05,23,01,01,6.40
2017,05,23,01,02,3.20
2017,05,23,01,03,3.20
2017,05,23,01,04,1.60
2017,05,23,01,05,4.80
2017,05,23,01,06,4.80
2017,05,23,01,07,1.60
2017,05,23,01,08,3.20
2017,05,23,01,09,4.80
2017,05,23,01,10,8.10
2017,05,23,01,11,4.80
2017,05,23,01,12,3.20
2017,05,23,01,13,1.60
2017,05,23,01,14,1.60
2017,05,23,01,15,6.40
2017,05,23,01,16,6.40
2017,05,23,01,17,1.60
2017,05,23,01,18,11.30
2017,05,23,01,19,6.40
2017,05,23,01,20,8.10
2017,05,23,01,21,4.80
2017,05,23,01,22,6.40
2017,05,23,01,24,4.80
2017,05,23,01,25,8.10
2017,05,23,01,26,4.80
2017,05,23,01,27,4.80
2017,05,23,01,28,3.20
2017,05,23,01,29,3.20
2017,05,23,01,30,1.60
2017,05,23,01,32,1.60
2017,05,23,01,33,3.20
2017,05,23,01,34,3.20
2017,05,23,01,36,3.20
2017,05,23,01,38,3.20
2017,05,23,01,39,8.10
2017,05,23,01,40,4.80
2017,05,23,01,41,6.40
2017,05,23,01,42,4.80
2017,05,23,01,43,3.20
2017,05,23,01,46,1.60
2017,05,23,01,47,1.60
2017,05,23,01,48,9.60
2017,05,23,01,49,11.30
2017,05,23,01,50,9.60
2017,05,23,01,51,6.40
2017,05,23,01,52,3.20
2017,05,23,01,53,4.80
2017,05,23,01,54,4.80
2017,05,23,01,55,3.20
2017,05,23,01,56,8.10
2017,05,23,01,57,8.10
2017,05,23,01,58,4.80
2017,05,23,01,59,9.60
2017,05,23,02,00,11.30
2017,05,23,02,01,4.80
2017,05,23,02,02,11.30
2017,05,23,02,03,11.30
2017,05,23,02,04,3.20
2017,05,23,02,05,4.80
2017,05,23,02,06,1.60
2017,05,23,02,07,11.30
2017,05,23,02,08,8.10
2017,05,23,02,09,4.80
2017,05,23,02,10,3.20
2017,05,23,02,11,6.40
2017,05,23,02,12,4.80
2017,05,23,02,13,3.20
2017,05,23,02,14,8.10
2017,05,23,02,15,8.10
2017,05,23,02,16,11.30
2017,05,23,02,17,9.60
2017,05,23,02,18,6.40
2017,05,23,02,19,11.30
2017,05,23,02,20,12.90
2017,05,23,02,21,6.40
2017,05,23,02,22,8.10
2017,05,23,02,23,16.10
2017,05,23,02,24,9.60
2017,05,23,02,25,6.40
2017,05,23,02,26,12.90
2017,05,23,02,27,9.60
2017,05,23,02,28,11.30
2017,05,23,02,29,1.60
2017,05,23,02,30,1.60
2017,05,23,02,31,6.40
2017,05,23,02,32,6.40
2017,05,23,02,33,17.70
2017,05,23,02,34,6.40
2017,05,23,02,35,9.60
2017,05,23,02,36,12.90
2017,05,23,02,37,3.20
2017,05,23,02,38,11.30
2017,05,23,02,39,6.40
2017,05,23,02,40,8.10
2017,05,23,02,41,6.40
2017,05,23,02,42,14.50
2017,05,23,02,43,8.10
2017,05,23,02,44,3.20
2017,05,23,02,45,8.10
2017,05,23,02,46,8.10
2017,05,23,02,47,11.30
2017,05,23,02,48,11.30
2017,05,23,02,49,9.60
2017,05,23,02,50,6.40
2017,05,23,02,51,6.40
2017,05,23,02,52,6.40
2017,05,23,02,53,6.40
2017,05,23,02,54,3.20
2017,05,23,02,55,11.30
2017,05,23,02,56,4.80
2017,05,23,02,57,8.10
2017,05,23,02,58,6.40
2017,05,23,02,59,6.40
2017,05,23,03,00,6.40
2017,05,23,03,01,8.10
2017,05,23,03,02,9.60
2017,05,23,03,03,4.80
2017,05,23,03,04,1.60
2017,05,23,03,05,3.20
2017,05,23,03,07,9.60
2017,05,23,03,08,1.60
2017,05,23,03,09,9.60
2017,05,23,03,10,12.90
2017,05,23,03,11,4.80
2017,05,23,03,12,8.10
2017,05,23,03,13,6.40
2017,05,23,03,14,6.40
2017,05,23,03,15,6.40
2017,05,23,03,16,6.40
2017,05,23,03,17,4.80
2017,05,23,03,18,6.40
2017,05,23,03,19,4.80
2017,05,23,03,20,11.30
2017,05,23,03,21,6.40
2017,05,23,03,22,6.40
2017,05,23,03,23,8.10
2017,05,23,03,24,8.10
2017,05,23,03,25,11.30
2017,05,23,03,26,8.10
2017,05,23,03,27,12.90
2017,05,23,03,28,8.10
2017,05,23,03,29,11.30
2017,05,23,03,30,8.10
2017,05,23,03,31,8.10
2017,05,23,03,32,6.40
2017,05,23,03,33,3.20
2017,05,23,03,34,3.20
2017,05,23,03,35,4.80
2017,05,23,03,36,6.40
2017,05,23,03,37,4.80
2017,05,23,03,38,9.60
2017,05,23,03,39,8.10
2017,05,23,03,40,3.20
2017,05,23,03,41,8.10
2017,05,23,03,42,6.40
2017,05,23,03,43,8.10
2017,05,23,03,44,3.20
2017,05,23,03,45,6.40
2017,05,23,03,46,8.10
2017,05,23,03,47,6.40
2017,05,23,03,48,9.60
2017,05,23,03,49,6.40
2017,05,23,03,50,6.40
2017,05,23,03,51,6.40
2017,05,23,03,52,3.20
2017,05,23,03,53,9.60
2017,05,23,03,54,4.80
2017,05,23,03,55,8.10
2017,05,23,03,56,8.10
2017,05,23,03,57,1.60
2017,05,23,03,58,4.80
2017,05,23,03,59,8.10
2017,05,23,04,00,9.60
2017,05,23,04,02,9.60
2017,05,23,04,03,14.50
2017,05,23,04,04,6.40
2017,05,23,04,06,4.80
2017,05,23,04,07,9.60
2017,05,23,04,08,1.60
2017,05,23,04,09,6.40
2017,05,23,04,10,11.30
2017,05,23,04,11,12.90
2017,05,23,04,12,1.60
2017,05,23,04,13,8.10
2017,05,23,04,14,6.40
2017,05,23,04,15,6.40
2017,05,23,04,16,9.60
2017,05,23,04,17,9.60
2017,05,23,04,18,6.40
2017,05,23,04,19,9.60
2017,05,23,04,20,11.30
2017,05,23,04,21,14.50
2017,05,23,04,22,14.50
2017,05,23,04,23,8.10
2017,05,23,04,24,6.40
2017,05,23,04,25,6.40
2017,05,23,04,26,8.10
2017,05,23,04,27,3.20
2017,05,23,04,28,8.10
2017,05,23,04,29,9.60
2017,05,23,04,30,4.80
2017,05,23,04,31,11.30
2017,05,23,04,32,8.10
2017,05,23,04,33,11.30
2017,05,23,04,34,3.20
2017,05,23,04,35,9.60
2017,05,23,04,36,12.90
2017,05,23,04,37,16.10
2017,05,23,04,38,4.80
2017,05,23,04,39,4.80
2017,05,23,04,40,4.80
2017,05,23,04,41,8.10
2017,05,23,04,42,4.80
2017,05,23,04,43,8.10
2017,05,23,04,44,4.80
2017,05,23,04,45,3.20
2017,05,23,04,46,8.10
2017,05,23,04,47,8.10
2017,05,23,04,48,4.80
2017,05,23,04,49,8.10
2017,05,23,04,50,3.20
2017,05,23,04,51,8.10
2017,05,23,04,52,4.80
2017,05,23,04,53,6.40
2017,05,23,04,54,6.40
2017,05,23,04,55,12.90
2017,05,23,04,56,14.50
2017,05,23,04,57,11.30
2017,05,23,04,58,9.60
2017,05,23,04,59,9.60
2017,05,23,05,00,14.50
2017,05,23,05,01,6.40
2017,05,23,05,02,4.80
2017,05,23,05,03,11.30
2017,05,23,05,04,6.40
2017,05,23,05,05,3.20
2017,05,23,05,06,6.40
2017,05,23,05,07,4.80
2017,05,23,05,08,4.80
2017,05,23,05,09,11.30
2017,05,23,05,10,9.60
2017,05,23,05,11,12.90
2017,05,23,05,12,4.80
2017,05,23,05,13,4.80
2017,05,23,05,14,8.10
2017,05,23,05,15,14.50
2017,05,23,05,16,16.10
2017,05,23,05,17,4.80
2017,05,23,05,18,11.30
2017,05,23,05,19,3.20
2017,05,23,05,20,6.40
2017,05,23,05,21,9.60
2017,05,23,05,22,9.60
2017,05,23,05,23,12.90
2017,05,23,05,24,9.60
2017,05,23,05,25,8.10
2017,05,23,05,26,4.80
2017,05,23,05,27,6.40
2017,05,23,05,28,9.60
2017,05,23,05,29,11.30
2017,05,23,05,30,11.30
2017,05,23,05,31,11.30
2017,05,23,05,32,9.60
2017,05,23,05,33,8.10
2017,05,23,05,34,12.90
2017,05,23,05,35,6.40
2017,05,23,05,36,8.10
2017,05,23,05,37,6.40
2017,05,23,05,38,4.80
2017,05,23,05,39,16.10
2017,05,23,05,40,11.30
2017,05,23,05,41,6.40
2017,05,23,05,42,9.60
2017,05,23,05,43,9.60
2017,05,23,05,44,8.10
2017,05,23,05,45,12.90
2017,05,23,05,46,9.60
2017,05,23,05,47,9.60
2017,05,23,05,48,11.30
2017,05,23,05,49,6.40
2017,05,23,05,50,1.60
2017,05,23,05,51,4.80
2017,05,23,05,52,6.40
2017,05,23,05,53,6.40
2017,05,23,05,54,11.30
2017,05,23,05,55,6.40
2017,05,23,05,56,4.80
2017,05,23,05,57,4.80
2017,05,23,05,58,4.80
2017,05,23,05,59,4.80
2017,05,23,06,00,4.80
2017,05,23,06,01,4.80
2017,05,23,06,02,4.80
2017,05,23,06,03,9.60
2017,05,23,06,04,9.60
2017,05,23,06,05,1.60
2017,05,23,06,06,1.60
2017,05,23,06,07,4.80
2017,05,23,06,08,4.80
2017,05,23,06,09,6.40
2017,05,23,06,10,8.10
2017,05,23,06,11,8.10
2017,05,23,06,12,8.10
2017,05,23,06,13,6.40
2017,05,23,06,14,9.60
2017,05,23,06,15,4.80
2017,05,23,06,16,8.10
2017,05,23,06,17,8.10
2017,05,23,06,18,11.30
2017,05,23,06,19,6.40
2017,05,23,06,20,8.10
2017,05,23,06,21,4.80
2017,05,23,06,22,8.10
2017,05,23,06,23,1.60
2017,05,23,06,24,6.40
2017,05,23,06,25,8.10
2017,05,23,06,26,6.40
2017,05,23,06,27,8.10
2017,05,23,06,28,6.40
2017,05,23,06,29,1.60
2017,05,23,06,30,9.60
2017,05,23,06,31,6.40
2017,05,23,06,32,3.20
2017,05,23,06,33,4.80
2017,05,23,06,34,1.60
2017,05,23,06,36,1.60
2017,05,23,06,37,6.40
2017,05,23,06,38,3.20
2017,05,23,06,39,3.20
2017,05,23,06,40,3.20
2017,05,23,06,41,1.60
2017,05,23,06,42,6.40
2017,05,23,06,43,1.60
2017,05,23,06,44,1.60
2017,05,23,06,45,1.60
2017,05,23,06,46,1.60
2017,05,23,06,47,1.60
2017,05,23,06,48,1.60
2017,05,23,06,49,6.40
2017,05,23,06,50,6.40
2017,05,23,06,51,8.10
2017,05,23,06,52,4.80
2017,05,23,06,53,11.30
2017,05,23,06,54,8.10
2017,05,23,06,55,11.30
2017,05,23,06,56,6.40
2017,05,23,06,57,8.10
2017,05,23,06,58,6.40
2017,05,23,06,59,9.60
2017,05,23,07,00,6.40
2017,05,23,07,01,4.80
2017,05,23,07,02,1.60
2017,05,23,07,03,8.10
2017,05,23,07,04,4.80
2017,05,23,07,05,8.10
2017,05,23,07,06,6.40
2017,05,23,07,07,14.50
2017,05,23,07,08,4.80
2017,05,23,07,09,6.40
2017,05,23,07,10,9.60
2017,05,23,07,11,8.10
2017,05,23,07,12,3.20
2017,05,23,07,13,8.10
2017,05,23,07,14,9.60
2017,05,23,07,15,12.90
2017,05,23,07,16,12.90
2017,05,23,07,17,16.10
2017,05,23,07,18,9.60
2017,05,23,07,19,12.90
2017,05,23,07,20,9.60
2017,05,23,07,21,6.40
2017,05,23,07,22,9.60
2017,05,23,07,23,9.60
2017,05,23,07,24,12.90
2017,05,23,07,25,11.30
2017,05,23,07,26,9.60
2017,05,23,07,27,14.50
2017,05,23,07,28,19.30
2017,05,23,07,29,12.90
2017,05,23,07,30,9.60
2017,05,23,07,31,16.10
2017,05,23,07,32,4.80
2017,05,23,07,33,3.20
2017,05,23,07,34,16.10
2017,05,23,07,35,9.60
2017,05,23,07,36,8.10
2017,05,23,07,37,11.30
2017,05,23,07,38,9.60
2017,05,23,07,39,6.40
2017,05,23,07,40,6.40
2017,05,23,07,41,12.90
2017,05,23,07,42,8.10
2017,05,23,07,43,6.40
2017,05,23,07,44,4.80
2017,05,23,07,45,9.60
2017,05,23,07,46,17.70
2017,05,23,07,47,11.30
2017,05,23,07,48,11.30
2017,05,23,07,49,8.10
2017,05,23,07,50,6.40
2017,05,23,07,51,4.80
2017,05,23,07,52,8.10
2017,05,23,07,53,4.80
2017,05,23,07,54,8.10
2017,05,23,07,55,6.40
2017,05,23,07,56,19.30
2017,05,23,07,57,16.10
2017,05,23,07,58,8.10
2017,05,23,07,59,9.60
2017,05,23,08,00,6.40
2017,05,23,08,01,4.80
2017,05,23,08,04,12.90
2017,05,23,08,05,11.30
2017,05,23,08,06,16.10
2017,05,23,08,07,14.50
2017,05,23,08,08,24.20
2017,05,23,08,09,25.70
2017,05,23,08,10,12.90
2017,05,23,08,11,12.90
2017,05,23,08,12,9.60
2017,05,23,08,13,6.40
2017,05,23,08,14,4.80
2017,05,23,08,15,14.50
2017,05,23,08,16,9.60
2017,05,23,08,17,9.60
2017,05,23,08,18,14.50
2017,05,23,08,19,11.30
2017,05,23,08,20,9.60
2017,05,23,08,21,11.30
2017,05,23,08,22,11.30
2017,05,23,08,23,12.90
2017,05,23,08,24,8.10
2017,05,23,08,25,8.10
2017,05,23,08,26,11.30
2017,05,23,08,27,8.10
2017,05,23,08,28,12.90
2017,05,23,08,29,9.60
2017,05,23,08,30,8.10
2017,05,23,08,31,12.90
2017,05,23,08,32,17.70
2017,05,23,08,33,12.90
2017,05,23,08,34,12.90
2017,05,23,08,35,11.30
2017,05,23,08,36,16.10
2017,05,23,08,37,14.50
2017,05,23,08,38,14.50
2017,05,23,08,39,8.10
2017,05,23,08,40,6.40
2017,05,23,08,41,9.60
2017,05,23,08,42,9.60
2017,05,23,08,43,9.60
2017,05,23,08,44,6.40
2017,05,23,08,45,8.10
2017,05,23,08,46,11.30
2017,05,23,08,47,11.30
2017,05,23,08,48,8.10
2017,05,23,08,49,8.10
2017,05,23,08,50,14.50
2017,05,23,08,51,8.10
2017,05,23,08,52,14.50
2017,05,23,08,53,11.30
2017,05,23,08,54,11.30
2017,05,23,08,55,12.90
2017,05,23,08,56,16.10
2017,05,23,08,57,9.60
2017,05,23,08,58,8.10
2017,05,23,08,59,19.30
2017,05,23,09,00,17.70
2017,05,23,09,01,11.30
2017,05,23,09,02,14.50
2017,05,23,09,03,12.90
2017,05,23,09,04,14.50
2017,05,23,09,05,12.90
2017,05,23,09,06,4.80
2017,05,23,09,07,9.60
2017,05,23,09,08,11.30
2017,05,23,09,09,12.90
2017,05,23,09,10,14.50
2017,05,23,09,11,12.90
2017,05,23,09,12,9.60
2017,05,23,09,13,14.50
2017,05,23,09,14,12.90
2017,05,23,09,15,8.10
2017,05,23,09,16,6.40
2017,05,23,09,17,12.90
2017,05,23,09,18,11.30
2017,05,23,09,19,11.30
2017,05,23,09,20,8.10
2017,05,23,09,21,11.30
2017,05,23,09,22,14.50
2017,05,23,09,23,16.10
2017,05,23,09,24,8.10
2017,05,23,09,25,6.40
2017,05,23,09,26,12.90
2017,05,23,09,27,12.90
2017,05,23,09,28,12.90
2017,05,23,09,29,11.30
2017,05,23,09,30,14.50
2017,05,23,09,31,19.30
2017,05,23,09,32,14.50
2017,05,23,09,33,16.10
2017,05,23,09,34,16.10
2017,05,23,09,35,14.50
2017,05,23,09,36,8.10
2017,05,23,09,37,14.50
2017,05,23,09,38,9.60
2017,05,23,09,39,12.90
2017,05,23,09,40,12.90
2017,05,23,09,41,17.70
2017,05,23,09,42,12.90
2017,05,23,09,43,16.10
2017,05,23,09,44,12.90
2017,05,23,09,45,9.60
2017,05,23,09,46,11.30
2017,05,23,09,47,8.10
2017,05,23,09,48,11.30
2017,05,23,09,49,11.30
2017,05,23,09,50,14.50
2017,05,23,09,51,8.10
2017,05,23,09,52,14.50
2017,05,23,09,53,8.10
2017,05,23,09,54,4.80
2017,05,23,09,55,14.50
2017,05,23,09,56,3.20
2017,05,23,09,57,4.80
2017,05,23,09,58,8.10
2017,05,23,09,59,9.60
2017,05,23,10,00,8.10
2017,05,23,10,01,9.60
2017,05,23,10,02,6.40
2017,05,23,10,03,11.30
2017,05,23,10,04,8.10
2017,05,23,10,05,9.60
2017,05,23,10,06,9.60
2017,05,23,10,07,3.20
2017,05,23,10,08,8.10
2017,05,23,10,09,16.10
2017,05,23,10,10,6.40
2017,05,23,10,11,12.90
2017,05,23,10,12,16.10
2017,05,23,10,13,11.30
2017,05,23,10,14,19.30
2017,05,23,10,15,17.70
2017,05,23,10,16,11.30
2017,05,23,10,17,11.30
2017,05,23,10,18,8.10
2017,05,23,10,19,8.10
2017,05,23,10,20,14.50
2017,05,23,10,21,14.50
2017,05,23,10,22,14.50
2017,05,23,10,23,11.30
2017,05,23,10,24,9.60
2017,05,23,10,25,9.60
2017,05,23,10,26,14.50
2017,05,23,10,27,20.90
2017,05,23,10,28,14.50
2017,05,23,10,29,17.70
2017,05,23,10,30,11.30
2017,05,23,10,31,6.40
2017,05,23,10,32,17.70
2017,05,23,10,33,8.10
2017,05,23,10,34,16.10
2017,05,23,10,35,12.90
2017,05,23,10,36,14.50
2017,05,23,10,37,12.90
2017,05,23,10,38,12.90
2017,05,23,10,39,9.60
2017,05,23,10,40,14.50
2017,05,23,10,41,16.10
2017,05,23,10,42,8.10
2017,05,23,10,43,12.90
2017,05,23,10,44,6.40
2017,05,23,10,45,9.60
2017,05,23,10,46,12.90
2017,05,23,10,47,12.90
2017,05,23,10,48,16.10
2017,05,23,10,49,19.30
2017,05,23,10,50,12.90
2017,05,23,10,51,8.10
2017,05,23,10,52,11.30
2017,05,23,10,53,8.10
2017,05,23,10,54,8.10
2017,05,23,10,55,14.50
2017,05,23,10,56,12.90
2017,05,23,10,57,9.60
2017,05,23,10,58,6.40
2017,05,23,10,59,12.90
2017,05,23,11,00,12.90
2017,05,23,11,01,14.50
2017,05,23,11,02,12.90
2017,05,23,11,03,6.40
2017,05,23,11,04,11.30
2017,05,23,11,08,6.40
2017,05,23,11,09,11.30
2017,05,23,11,10,11.30
2017,05,23,11,11,12.90
2017,05,23,11,12,12.90
2017,05,23,11,13,17.70
2017,05,23,11,14,16.10
2017,05,23,11,15,8.10
2017,05,23,11,16,14.50
2017,05,23,11,17,11.30
2017,05,23,11,18,16.10
2017,05,23,11,19,16.10
2017,05,23,11,20,14.50
2017,05,23,11,21,19.30
2017,05,23,11,22,19.30
2017,05,23,11,23,19.30
2017,05,23,11,24,17.70
2017,05,23,11,25,19.30
2017,05,23,11,26,9.60
2017,05,23,11,27,30.60
2017,05,23,11,28,14.50
2017,05,23,11,29,20.90
2017,05,23,11,30,22.50
2017,05,23,11,31,11.30
2017,05,23,11,32,16.10
2017,05,23,11,33,14.50
2017,05,23,11,34,22.50
2017,05,23,11,35,8.10
2017,05,23,11,36,20.90
2017,05,23,11,37,16.10
2017,05,23,11,38,11.30
2017,05,23,11,39,9.60
2017,05,23,11,40,20.90
2017,05,23,11,41,12.90
2017,05,23,11,42,9.60
2017,05,23,11,43,16.10
2017,05,23,11,44,14.50
2017,05,23,11,45,25.70
2017,05,23,11,46,14.50
2017,05,23,11,47,20.90
2017,05,23,11,48,22.50
2017,05,23,11,49,20.90
2017,05,23,11,50,11.30
2017,05,23,11,51,27.40
2017,05,23,11,52,19.30
2017,05,23,11,53,16.10
2017,05,23,11,54,14.50
2017,05,23,11,55,22.50
2017,05,23,11,56,16.10
2017,05,23,11,57,20.90
2017,05,23,11,58,12.90
2017,05,23,11,59,22.50
2017,05,23,12,00,16.10
2017,05,23,12,01,11.30
2017,05,23,12,02,16.10
2017,05,23,12,03,19.30
2017,05,23,12,04,14.50
2017,05,23,12,05,22.50
2017,05,23,12,06,17.70
2017,05,23,12,07,11.30
2017,05,23,12,08,9.60
2017,05,23,12,09,24.20
2017,05,23,12,10,12.90
2017,05,23,12,11,17.70
2017,05,23,12,12,22.50
2017,05,23,12,13,19.30
2017,05,23,12,14,16.10
2017,05,23,12,15,17.70
2017,05,23,12,16,16.10
2017,05,23,12,17,16.10
2017,05,23,12,18,11.30
2017,05,23,12,19,12.90
2017,05,23,12,20,8.10
2017,05,23,12,21,14.50
2017,05,23,12,22,25.70
2017,05,23,12,23,11.30
2017,05,23,12,24,17.70
2017,05,23,12,25,9.60
2017,05,23,12,26,11.30
2017,05,23,12,27,20.90
2017,05,23,12,28,24.20
2017,05,23,12,29,17.70
2017,05,23,12,30,16.10
2017,05,23,12,31,17.70
2017,05,23,12,32,17.70
2017,05,23,12,33,20.90
2017,05,23,12,34,14.50
2017,05,23,12,35,17.70
2017,05,23,12,36,11.30
2017,05,23,12,37,6.40
2017,05,23,12,38,6.40
2017,05,23,12,39,6.40
2017,05,23,12,40,6.40
2017,05,23,12,41,22.50
2017,05,23,12,42,24.20
2017,05,23,12,43,27.40
2017,05,23,12,44,25.70
2017,05,23,12,45,25.70
2017,05,23,12,46,25.70
2017,05,23,12,47,27.40
2017,05,23,12,48,24.20
2017,05,23,12,49,19.30
2017,05,23,12,50,14.50
2017,05,23,12,51,20.90
2017,05,23,12,52,12.90
2017,05,23,12,53,22.50
2017,05,23,12,54,19.30
2017,05,23,12,55,20.90
2017,05,23,12,56,20.90
2017,05,23,12,57,14.50
2017,05,23,12,58,29.00
2017,05,23,12,59,17.70
2017,05,23,13,00,14.50
2017,05,23,13,01,29.00
2017,05,23,13,02,22.50
2017,05,23,13,03,22.50
2017,05,23,13,04,19.30
2017,05,23,13,05,25.70
2017,05,23,13,06,17.70
2017,05,23,13,07,38.60
2017,05,23,13,08,30.60
2017,05,23,13,09,14.50
2017,05,23,13,10,25.70
2017,05,23,13,11,30.60
2017,05,23,13,12,22.50
2017,05,23,13,13,32.20
2017,05,23,13,14,29.00
2017,05,23,13,15,14.50
2017,05,23,13,16,17.70
2017,05,23,13,17,12.90
2017,05,23,13,18,24.20
2017,05,23,13,19,27.40
2017,05,23,13,20,20.90
2017,05,23,13,21,29.00
2017,05,23,13,22,14.50
2017,05,23,13,23,29.00
2017,05,23,13,24,22.50
2017,05,23,13,25,24.20
2017,05,23,13,26,24.20
2017,05,23,13,27,24.20
2017,05,23,13,28,25.70
2017,05,23,13,29,33.80
2017,05,23,13,30,16.10
2017,05,23,13,31,19.30
2017,05,23,13,32,24.20
2017,05,23,13,33,19.30
2017,05,23,13,34,16.10
2017,05,23,13,35,20.90
2017,05,23,13,36,24.20
2017,05,23,13,37,24.20
2017,05,23,13,38,19.30
2017,05,23,13,39,22.50
2017,05,23,13,40,14.50
2017,05,23,13,41,12.90
2017,05,23,13,42,14.50
2017,05,23,13,43,11.30
2017,05,23,13,44,22.50
2017,05,23,13,45,17.70
2017,05,23,13,46,12.90
2017,05,23,13,47,20.90
2017,05,23,13,48,19.30
2017,05,23,13,49,12.90
2017,05,23,13,50,29.00
2017,05,23,13,51,20.90
2017,05,23,13,52,17.70
2017,05,23,13,53,22.50
2017,05,23,13,54,22.50
2017,05,23,13,55,20.90
2017,05,23,13,56,22.50
2017,05,23,13,57,16.10
2017,05,23,13,58,20.90
2017,05,23,13,59,11.30
2017,05,23,14,00,16.10
2017,05,23,14,01,12.90
2017,05,23,14,02,27.40
2017,05,23,14,03,20.90
2017,05,23,14,04,20.90
2017,05,23,14,05,12.90
2017,05,23,14,06,27.40
2017,05,23,14,07,29.00
2017,05,23,14,08,17.70
2017,05,23,14,09,16.10
2017,05,23,14,10,20.90
2017,05,23,14,11,17.70
2017,05,23,14,12,29.00
2017,05,23,14,13,29.00
2017,05,23,14,14,25.70
2017,05,23,14,15,24.20
2017,05,23,14,16,17.70
2017,05,23,14,17,24.20
2017,05,23,14,18,22.50
2017,05,23,14,19,37.00
2017,05,23,14,20,24.20
2017,05,23,14,21,24.20
2017,05,23,14,22,20.90
2017,05,23,14,23,38.60
2017,05,23,14,24,19.30
2017,05,23,14,25,30.60
2017,05,23,14,26,20.90
2017,05,23,14,27,25.70
2017,05,23,14,28,40.20
2017,05,23,14,29,20.90
2017,05,23,14,30,30.60
2017,05,23,14,31,22.50
2017,05,23,14,32,14.50
2017,05,23,14,33,25.70
2017,05,23,14,34,11.30
2017,05,23,14,35,22.50
2017,05,23,14,36,19.30
2017,05,23,14,37,35.40
2017,05,23,14,38,24.20
2017,05,23,14,39,27.40
2017,05,23,14,40,24.20
2017,05,23,14,41,11.30
2017,05,23,14,42,32.20
2017,05,23,14,43,27.40
2017,05,23,14,44,25.70
2017,05,23,14,45,24.20
2017,05,23,14,46,24.20
2017,05,23,14,47,16.10
2017,05,23,14,48,24.20
2017,05,23,14,49,30.60
2017,05,23,14,50,32.20
2017,05,23,14,51,20.90
2017,05,23,14,52,14.50
2017,05,23,14,53,12.90
2017,05,23,14,54,24.20
2017,05,23,14,55,17.70
2017,05,23,14,56,19.30
2017,05,23,14,57,14.50
2017,05,23,14,58,20.90
2017,05,23,14,59,14.50
2017,05,23,15,00,19.30
2017,05,23,15,01,19.30
2017,05,23,15,02,30.60
2017,05,23,15,03,22.50
2017,05,23,15,04,22.50
2017,05,23,15,05,22.50
2017,05,23,15,06,14.50
2017,05,23,15,07,14.50
2017,05,23,15,08,16.10
2017,05,23,15,09,16.10
2017,05,23,15,10,25.70
2017,05,23,15,11,30.60
2017,05,23,15,12,24.20
2017,05,23,15,13,25.70
2017,05,23,15,14,22.50
2017,05,23,15,15,24.20
2017,05,23,15,16,11.30
2017,05,23,15,17,16.10
2017,05,23,15,18,19.30
2017,05,23,15,19,25.70
2017,05,23,15,20,29.00
2017,05,23,15,21,19.30
2017,05,23,15,22,32.20
2017,05,23,15,23,40.20
2017,05,23,15,24,19.30
2017,05,23,15,25,17.70
2017,05,23,15,26,17.70
2017,05,23,15,27,17.70
2017,05,23,15,28,24.20
2017,05,23,15,29,16.10
2017,05,23,15,30,33.80
2017,05,23,15,31,20.90
2017,05,23,15,32,16.10
2017,05,23,15,33,19.30
2017,05,23,15,34,30.60
2017,05,23,15,35,25.70
2017,05,23,15,36,17.70
2017,05,23,15,37,30.60
2017,05,23,15,38,37.00
2017,05,23,15,39,25.70
2017,05,23,15,40,19.30
2017,05,23,15,41,19.30
2017,05,23,15,42,24.20
2017,05,23,15,43,25.70
2017,05,23,15,44,22.50
2017,05,23,15,45,20.90
2017,05,23,15,46,25.70
2017,05,23,15,47,25.70
2017,05,23,15,48,27.40
2017,05,23,15,49,14.50
2017,05,23,15,50,14.50
2017,05,23,15,51,22.50
2017,05,23,15,52,33.80
2017,05,23,15,53,32.20
2017,05,23,15,54,29.00
2017,05,23,15,55,27.40
2017,05,23,15,56,29.00
2017,05,23,15,57,22.50
2017,05,23,15,58,22.50
2017,05,23,15,59,30.60
2017,05,23,16,00,25.70
2017,05,23,16,01,33.80
2017,05,23,16,02,30.60
2017,05,23,16,03,30.60
2017,05,23,16,04,33.80
2017,05,23,16,05,29.00
2017,05,23,16,06,20.90
2017,05,23,16,07,27.40
2017,05,23,16,08,22.50
2017,05,23,16,09,30.60
2017,05,23,16,10,14.50
2017,05,23,16,11,30.60
2017,05,23,16,12,25.70
2017,05,23,16,13,20.90
2017,05,23,16,14,19.30
2017,05,23,16,15,29.00
2017,05,23,16,16,22.50
2017,05,23,16,17,19.30
2017,05,23,16,18,24.20
2017,05,23,16,19,30.60
2017,05,23,16,20,30.60
2017,05,23,16,21,30.60
2017,05,23,16,22,33.80
2017,05,23,16,23,32.20
2017,05,23,16,24,30.60
2017,05,23,16,25,22.50
2017,05,23,16,26,29.00
2017,05,23,16,27,29.00
2017,05,23,16,28,25.70
2017,05,23,16,29,32.20
2017,05,23,16,30,25.70
2017,05,23,16,31,24.20
2017,05,23,16,32,30.60
2017,05,23,16,33,25.70
2017,05,23,16,34,37.00
2017,05,23,16,35,24.20
2017,05,23,16,36,24.20
2017,05,23,16,37,32.20
2017,05,23,16,38,30.60
2017,05,23,16,39,32.20
2017,05,23,16,40,20.90
2017,05,23,16,41,27.40
2017,05,23,16,42,22.50
2017,05,23,16,43,27.40
2017,05,23,16,44,25.70
2017,05,23,16,45,29.00
2017,05,23,16,46,37.00
2017,05,23,16,47,37.00
2017,05,23,16,48,30.60
2017,05,23,16,49,17.70
2017,05,23,16,50,33.80
2017,05,23,16,51,25.70
2017,05,23,16,52,27.40
2017,05,23,16,53,25.70
2017,05,23,16,54,25.70
2017,05,23,16,55,38.60
2017,05,23,16,56,41.80
2017,05,23,16,57,30.60
2017,05,23,16,58,43.50
2017,05,23,16,59,20.90
2017,05,23,17,00,25.70
2017,05,23,17,01,20.90
2017,05,23,17,02,32.20
2017,05,23,17,03,24.20
2017,05,23,17,04,24.20
2017,05,23,17,05,43.50
2017,05,23,17,06,25.70
2017,05,23,17,07,40.20
2017,05,23,17,08,24.20
2017,05,23,17,09,33.80
2017,05,23,17,10,32.20
2017,05,23,17,11,22.50
2017,05,23,17,12,30.60
2017,05,23,17,13,14.50
2017,05,23,17,14,24.20
2017,05,23,17,15,40.20
2017,05,23,17,16,25.70
2017,05,23,17,17,17.70
2017,05,23,17,18,20.90
2017,05,23,17,19,29.00
2017,05,23,17,20,25.70
2017,05,23,17,21,27.40
2017,05,23,17,22,33.80
2017,05,23,17,23,24.20
2017,05,23,17,24,24.20
2017,05,23,17,25,32.20
2017,05,23,17,26,27.40
2017,05,23,17,27,32.20
2017,05,23,17,28,27.40
2017,05,23,17,29,27.40
2017,05,23,17,30,27.40
2017,05,23,17,31,27.40
2017,05,23,17,32,30.60
2017,05,23,17,33,33.80
2017,05,23,17,34,38.60
2017,05,23,17,35,38.60
2017,05,23,17,36,25.70
2017,05,23,17,37,27.40
2017,05,23,17,38,25.70
2017,05,23,17,39,27.40
2017,05,23,17,40,17.70
2017,05,23,17,41,41.80
2017,05,23,17,42,20.90
2017,05,23,17,43,25.70
2017,05,23,17,44,20.90
2017,05,23,17,45,29.00
2017,05,23,17,46,24.20
2017,05,23,17,47,25.70
2017,05,23,17,48,27.40
2017,05,23,17,49,25.70
2017,05,23,17,50,20.90
2017,05,23,17,51,19.30
2017,05,23,17,52,20.90
2017,05,23,17,53,32.20
2017,05,23,17,54,20.90
2017,05,23,17,55,35.40
2017,05,23,17,56,14.50
2017,05,23,17,57,22.50
2017,05,23,17,58,27.40